Weather History for YBCG - May, 2013

Change the Weather History Date:

Friday, May 3, 2013

  Actual Average (YBBN) Record (YBBN)
Temperature  
Mean Temperature 65 °F -  
Max Temperature 73 °F 74 °F 78 °F (2007)
Min Temperature 57 °F 58 °F 48 °F (2004)
Growing Degree Days 15 (Base 50)    
Moisture  
Dew Point 55 °F    
Average Humidity 70    
Maximum Humidity 94    
Minimum Humidity 47    
Precipitation  
Precipitation 0.00 in - - ()
Sea Level Pressure  
Sea Level Pressure 30.20 in    
Wind  
Wind Speed 10 mph ()    
Max Wind Speed 16 mph    
Max Gust Speed -    
Visibility 6.2 miles    
Events      
Averages and records for this station are not official NWS values.
T = Trace of Precipitation, MM = Missing Value Source: Averaged Metar Reports

Daily Weather History Graph

Daily Weather History Graph

Search for Another Location

Airport or City:

Trip Planner

Search our weather history database for the weather conditions in past years. The results will help you decide how hot, cold, wet, or windy it might be!

Date:

Astronomy

May. 03, 2013 Rise Set
Actual Time 6:13 AM AEST 5:12 PM AEST
Civil Twilight 5:48 AM AEST 5:36 PM AEST
Nautical Twilight 5:21 AM AEST 6:04 PM AEST
Astronomical Twilight 4:53 AM AEST 6:32 PM AEST
Moon No Moon Rise 12:48 PM AEST (5/3)
Length of Visible Light 11h 47m
Length of Day
10h 58m
Last Quarter, 43% of the Moon is Illuminated
May 3
Last Quarter
May 10
New
May 18
First Quarter
May 25
Full
Jun 1
Last Quarter

Hourly Weather History & Observations

Time (AEST) Temp. Dew Point Humidity Pressure Visibility Wind Dir Wind Speed Gust Speed Precip Events Conditions
12:00 AM 65 °F 56 °F 65% 30.23 in - South 13.8 mph - -  
12:00 AM 66.2 °F 55.4 °F 68% 30.21 in 6.2 mi South 13.8 mph - N/A   Unknown
12:30 AM 64.4 °F 55.4 °F 73% 30.21 in 6.2 mi South 12.7 mph - N/A   Unknown
1:00 AM 64.4 °F 55.4 °F 73% 30.21 in 6.2 mi SSW 11.5 mph - N/A   Unknown
1:30 AM 64.4 °F 53.6 °F 68% 30.21 in 6.2 mi South 12.7 mph - N/A   Mostly Cloudy
2:00 AM 62.6 °F 53.6 °F 72% 30.21 in 6.2 mi SSW 11.5 mph - N/A   Scattered Clouds
2:30 AM 62.6 °F 55.4 °F 77% 30.18 in 6.2 mi South 11.5 mph - N/A   Unknown
3:00 AM 61 °F 55 °F 74% 30.20 in - SSW 10.4 mph - -  
3:00 AM 60.8 °F 55.4 °F 82% 30.18 in 6.2 mi SSW 10.4 mph - N/A   Scattered Clouds
3:30 AM 62.6 °F 53.6 °F 72% 30.18 in 6.2 mi SSW 15.0 mph - N/A   Scattered Clouds
4:00 AM 60.8 °F 55.4 °F 82% 30.18 in 6.2 mi South 13.8 mph - N/A   Mostly Cloudy
4:30 AM 62.6 °F 53.6 °F 72% 30.18 in 6.2 mi SSW 12.7 mph - N/A   Scattered Clouds
5:00 AM 62.6 °F 53.6 °F 72% 30.21 in 6.2 mi SSW 11.5 mph - N/A   Unknown
5:30 AM 62.6 °F 53.6 °F 72% 30.21 in 6.2 mi South 9.2 mph - N/A   Scattered Clouds
6:00 AM 62 °F 54 °F 67% 30.23 in - SSW 10.4 mph - -  
6:00 AM 62.6 °F 53.6 °F 72% 30.21 in 6.2 mi SSW 10.4 mph - N/A   Unknown
6:30 AM 62.6 °F 53.6 °F 72% 30.21 in 6.2 mi SSW 11.5 mph - N/A   Unknown
7:00 AM 62.6 °F 53.6 °F 72% 30.24 in 6.2 mi SSW 13.8 mph - N/A   Unknown
7:30 AM 64.4 °F 53.6 °F 68% 30.24 in 6.2 mi SSW 13.8 mph - N/A   Unknown
8:00 AM 66.2 °F 55.4 °F 68% 30.24 in 6.2 mi SSW 11.5 mph - N/A   Unknown
8:30 AM 68.0 °F 57.2 °F 68% 30.27 in 6.2 mi SSW 9.2 mph - N/A   Unknown
9:00 AM 68 °F 56 °F 56% 30.27 in - SSW 11.5 mph - -  
9:00 AM 68.0 °F 55.4 °F 64% 30.27 in 6.2 mi SSW 11.5 mph - N/A   Unknown
9:30 AM 69.8 °F 57.2 °F 64% 30.27 in 6.2 mi SW 10.4 mph - N/A   Unknown
10:00 AM 69.8 °F 55.4 °F 60% 30.27 in 6.2 mi SSW 11.5 mph - N/A   Mostly Cloudy
10:30 AM 71.6 °F 57.2 °F 60% 30.27 in 6.2 mi South 10.4 mph - N/A   Unknown
11:00 AM 71.6 °F 53.6 °F 53% 30.24 in 6.2 mi South 13.8 mph - N/A   Scattered Clouds
11:30 AM 73.4 °F 51.8 °F 47% 30.24 in 6.2 mi SSE 16.1 mph - N/A   Scattered Clouds
12:00 PM 71.6 °F 53.6 °F 53% 30.24 in 6.2 mi South 12.7 mph - N/A   Scattered Clouds
12:30 PM 73.4 °F 53.6 °F 50% 30.21 in 6.2 mi South 13.8 mph - N/A   Mostly Cloudy
1:00 PM 73.4 °F 53.6 °F 50% 30.18 in 6.2 mi SSE 12.7 mph - N/A   Mostly Cloudy
1:30 PM 71.6 °F 53.6 °F 53% 30.18 in 6.2 mi SE 12.7 mph - N/A   Overcast
2:00 PM 71.6 °F 55.4 °F 57% 30.18 in 6.2 mi South 11.5 mph - N/A   Mostly Cloudy
2:30 PM 73.4 °F 55.4 °F 53% 30.15 in 6.2 mi SSW 8.1 mph - N/A   Scattered Clouds
3:00 PM 71 °F 55 °F 47% 30.18 in - SSE 11.5 mph - -  
3:00 PM 71.6 °F 55.4 °F 57% 30.15 in 6.2 mi SSE 11.5 mph - N/A   Scattered Clouds
3:30 PM 69.8 °F 57.2 °F 64% 30.15 in 6.2 mi South 10.4 mph - N/A   Mostly Cloudy
4:00 PM 69.8 °F 57.2 °F 64% 30.15 in 6.2 mi South 8.1 mph - N/A   Overcast
4:30 PM 69.8 °F 57.2 °F 64% 30.15 in 6.2 mi SSE 8.1 mph - N/A   Mostly Cloudy
5:00 PM 68.0 °F 57.2 °F 68% 30.18 in 6.2 mi South 6.9 mph - N/A   Scattered Clouds
5:30 PM 66.2 °F 57.2 °F 73% 30.18 in 6.2 mi SSW 5.8 mph - N/A   Scattered Clouds
6:00 PM 66 °F 57 °F 65% 30.19 in - SSW 5.8 mph - -  
6:00 PM 66.2 °F 57.2 °F 73% 30.18 in 6.2 mi SSW 5.8 mph - N/A   Mostly Cloudy
6:30 PM 62.6 °F 57.2 °F 82% 30.18 in 6.2 mi WSW 5.8 mph - N/A   Scattered Clouds
7:00 PM 62.6 °F 57.2 °F 82% 30.21 in 6.2 mi WSW 6.9 mph - N/A   Unknown
7:30 PM 62.6 °F 57.2 °F 82% 30.21 in 6.2 mi WSW 4.6 mph - N/A   Unknown
8:00 PM 60.8 °F 57.2 °F 88% 30.18 in 6.2 mi SW 3.5 mph - N/A   Unknown
8:30 PM 60.8 °F 57.2 °F 88% 30.21 in 6.2 mi SW 4.6 mph - N/A   Unknown
9:00 PM 59 °F 55 °F 83% 30.20 in - WSW 3.5 mph - -  
9:00 PM 59.0 °F 55.4 °F 88% 30.18 in 6.2 mi WSW 3.5 mph - N/A   Unknown
9:30 PM 59.0 °F 55.4 °F 88% 30.18 in 6.2 mi SW 5.8 mph - N/A   Unknown
10:00 PM 59.0 °F 55.4 °F 88% 30.18 in 6.2 mi SW 4.6 mph - N/A   Unknown
10:30 PM 59.0 °F 55.4 °F 88% 30.18 in 6.2 mi SW 3.5 mph - N/A   Unknown
11:00 PM 57.2 °F 55.4 °F 94% 30.18 in 6.2 mi WSW 5.8 mph - N/A   Unknown
11:30 PM 57.2 °F 53.6 °F 88% 30.18 in 6.2 mi SW 5.8 mph - N/A   Unknown